User: anonymous   Login
Location: Sabalos
(43.2860°N, 0.1414°E)
Time: 13:32:22
(UTC+00:00)
Language:

Cosmos 2056 Rocket - Orbit

View from above orbital plane
View from above orbital plane
View from above satellite
View from above satellite

Ground track
Ground track

The orbit data is extracted from the following two-line orbital elements,

1 20433U 90004B   20271.91195829 -.00000003 +00000-0 +76999-5 0  9990
2 20433 074.0357 315.3325 0040246 153.8009 019.0343 14.36106095606999
Epoch (UTC): 27 September 2020 21:53:13
Eccentricity: 0.0040246
inclination: 74.0357°
perigee height: 742 km
apogee height: 800 km
right ascension of ascending node: 315.3325°
argument of perigee: 153.8009°
revolutions per day: 14.36106095
mean anomaly at epoch: 19.0343°
orbit number at epoch: 60699

The dashed part of the orbit path shows where the satellite is in the earth's shadow,  

DLR